Ft Riley, KS

10:44 AM CDT on March 27, 2017 (GMT -0500)
Marshall Army Air Field

Weather History for KFRI - April, 2014

Change the Weather History Date:

Thursday, April 3, 2014

  Actual Average (KMHK) Record (KMHK)
Temperature  
Mean Temperature 44 °F -  
Max Temperature 49 °F 60 °F 91 °F (2011)
Min Temperature 37 °F 36 °F 23 °F (2002)
Degree Days  
Heating Degree Days 22    
Moisture  
Dew Point 43 °F    
Average Humidity 100    
Maximum Humidity 100    
Minimum Humidity 100    
Precipitation  
Precipitation 0.02 in - - ()
Sea Level Pressure  
Sea Level Pressure 29.73 in    
Wind  
Wind Speed 10 mph (NNW)    
Max Wind Speed 17 mph    
Max Gust Speed 29 mph    
Visibility 7 miles    
Events Rain    
Averages and records for this station are not official NWS values.
T = Trace of Precipitation, MM = Missing Value Source: NWS Daily Summary

Daily Weather History Graph

Daily Weather History Graph

Search for Another Location

Airport or City:

Trip Planner

Search our weather history database for the weather conditions in past years. The results will help you decide how hot, cold, wet, or windy it might be!

Date:

Astronomy

Apr. 03, 2014 Rise Set
Actual Time 7:08 AM CDT 7:52 PM CDT
Civil Twilight 6:41 AM CDT 8:19 PM CDT
Nautical Twilight 6:09 AM CDT 8:51 PM CDT
Astronomical Twilight 5:36 AM CDT 9:24 PM CDT
Moon 9:40 AM CDT (4/3) No Moon Set
Length of Visible Light 13h 38m
Length of Day
12h 44m
Waxing Crescent, 17% of the Moon is Illuminated
Apr 3
Waxing Crescent
Apr 7
First Quarter
Apr 15
Full
Apr 22
Last Quarter
Apr 29
New

Hourly Weather History & Observations

Time (CDT) Temp. Windchill Dew Point Humidity Pressure Visibility Wind Dir Wind Speed Gust Speed Precip Events Conditions
12:38 AM 46.4 °F 40.7 °F 46.4 °F 100% 29.65 in 6.0 mi ENE 12.7 mph - N/A   Overcast
12:58 AM 45.7 °F 39.8 °F 45.7 °F 100% 29.65 in 9.0 mi ENE 12.7 mph - N/A   Overcast
1:23 AM 46.4 °F 40.4 °F 46.4 °F 100% 29.63 in 7.0 mi NE 13.8 mph - N/A   Overcast
1:58 AM 46.0 °F 40.6 °F 46.0 °F 100% 29.62 in 4.0 mi NE 11.5 mph - N/A   Overcast
2:53 AM 46.4 °F 41.9 °F 46.4 °F 100% 29.64 in 2.5 mi North 9.2 mph - N/A   Overcast
2:58 AM 46.2 °F 42.7 °F 46.2 °F 100% 29.67 in 2.5 mi NW 6.9 mph - N/A   Overcast
3:03 AM 46.4 °F 42.4 °F 46.4 °F 100% 29.64 in 3.0 mi NNE 8.1 mph - N/A   Overcast
3:58 AM 46.8 °F - 46.8 °F 100% 29.62 in 3.0 mi ENE 10.4 mph - N/A   Overcast
4:53 AM 48.2 °F - 48.2 °F 100% 29.62 in 7.0 mi NNE 5.8 mph - N/A   Overcast
4:58 AM 48.2 °F - 48.2 °F 100% 29.62 in 7.0 mi NE 6.9 mph - N/A   Overcast
5:08 AM 48.2 °F - 48.2 °F 100% 29.61 in 6.0 mi NE 8.1 mph - N/A   Overcast
5:58 AM 48.9 °F - 48.9 °F 100% 29.62 in 9.0 mi NNE 8.1 mph - N/A   Overcast
6:03 AM 50.0 °F - 50.0 °F 100% 29.62 in 9.0 mi NNE 6.9 mph - N/A   Overcast
6:43 AM 46.4 °F 42.9 °F 46.4 °F 100% 29.63 in 10.0 mi North 6.9 mph - N/A   Overcast
6:58 AM 46.6 °F - 46.6 °F 100% 29.65 in 10.0 mi North 5.8 mph - N/A   Overcast
7:08 AM 46.4 °F 42.4 °F 46.4 °F 100% 29.64 in 10.0 mi North 8.1 mph - N/A   Overcast
7:58 AM 45.5 °F 42.5 °F 45.5 °F 100% 29.65 in 10.0 mi NNE 5.8 mph - N/A   Overcast
8:58 AM 45.9 °F 42.9 °F 45.9 °F 100% 29.65 in 6.0 mi NW 5.8 mph - N/A   Overcast
9:18 AM 44.6 °F 40.2 °F 44.6 °F 100% 29.64 in 3.0 mi North 8.1 mph - N/A   Overcast
9:23 AM 44.6 °F 40.7 °F 44.6 °F 100% 29.64 in 2.5 mi North 6.9 mph - N/A   Overcast
9:48 AM 44.6 °F 42.2 °F 44.6 °F 100% 29.65 in 2.0 mi North 4.6 mph - N/A   Overcast
9:58 AM 45.1 °F 41.4 °F 45.1 °F 100% 29.66 in 2.0 mi North 6.9 mph - N/A   Overcast
10:08 AM 44.6 °F 40.7 °F 44.6 °F 100% 29.64 in 2.0 mi North 6.9 mph - N/A   Overcast
10:38 AM 44.6 °F 41.4 °F 44.6 °F 100% 29.64 in 2.5 mi North 5.8 mph - N/A   Overcast
10:58 AM 45.7 °F 42.7 °F 45.7 °F 100% 29.65 in 3.0 mi NNW 5.8 mph - N/A   Overcast
11:03 AM 46.4 °F 45.2 °F 46.4 °F 100% 29.64 in 3.0 mi NW 3.5 mph - N/A   Overcast
11:38 AM 46.4 °F 42.4 °F 46.4 °F 100% 29.64 in 2.5 mi NW 8.1 mph - N/A   Overcast
11:58 AM 45.7 °F 41.5 °F 45.7 °F 100% 29.65 in 2.0 mi NNW 8.1 mph - N/A   Overcast
12:38 PM 44.6 °F 40.2 °F 44.6 °F 100% 29.66 in 2.5 mi NW 8.1 mph - N/A   Overcast
12:58 PM 45.3 °F 40.6 °F 45.3 °F 100% 29.67 in 3.0 mi NNW 9.2 mph - N/A   Overcast
1:18 PM 44.6 °F 39.7 °F 44.6 °F 100% 29.66 in 4.0 mi NNW 9.2 mph - N/A   Overcast
1:58 PM 45.7 °F 40.6 °F 45.7 °F 100% 29.67 in 5.0 mi NNW 10.4 mph - N/A   Overcast
2:18 PM 46.4 °F 43.5 °F 46.4 °F 100% 29.66 in 7.0 mi NW 5.8 mph - N/A   Overcast
2:58 PM 45.7 °F 42.0 °F 45.7 °F 100% 29.68 in 7.0 mi NW 6.9 mph - N/A   Overcast
3:33 PM 46.4 °F 42.4 °F 46.4 °F 100% 29.67 in 7.0 mi NW 8.1 mph - N/A   Overcast
3:58 PM 45.5 °F 40.3 °F 45.5 °F 100% 29.69 in 10.0 mi WNW 10.4 mph - N/A   Overcast
4:13 PM 44.6 °F 39.2 °F 44.6 °F 100% 29.68 in 10.0 mi WNW 10.4 mph - N/A   Overcast
4:58 PM 44.8 °F 38.0 °F 44.8 °F 100% 29.67 in 10.0 mi NNW 15.0 mph 20.7 mph N/A   Overcast
5:22 PM 44.6 °F 38.8 °F 44.6 °F 100% 29.66 in 10.0 mi NNW 11.5 mph 18.4 mph N/A   Overcast
5:33 PM 44.6 °F 38.8 °F 44.6 °F 100% 29.68 in 10.0 mi NW 11.5 mph - N/A   Overcast
5:58 PM 43.7 °F 37.3 °F 43.7 °F 100% 29.73 in 10.0 mi WNW 12.7 mph 21.9 mph 0.00 in   Overcast
6:18 PM 42.8 °F 36.6 °F 42.8 °F 100% 29.76 in 10.0 mi NW 11.5 mph 19.6 mph N/A   Overcast
6:38 PM 42.8 °F 37.0 °F 42.8 °F 100% 29.79 in 8.0 mi WNW 10.4 mph - N/A   Light Drizzle
6:53 PM 41.0 °F 35.2 °F 41.0 °F 100% 29.80 in 8.0 mi NW 9.2 mph - N/A   Light Drizzle
6:58 PM 41.7 °F 36.7 °F 41.7 °F 100% 29.81 in 8.0 mi NW 8.1 mph - 0.00 in   Light Drizzle
7:03 PM 41.0 °F 33.9 °F 41.0 °F 100% 29.80 in 6.0 mi NW 12.7 mph 17.3 mph N/A   Light Drizzle
7:28 PM 41.0 °F 34.7 °F 41.0 °F 100% 29.80 in 4.0 mi NW 10.4 mph 17.3 mph N/A   Overcast
7:33 PM 41.0 °F 35.2 °F 41.0 °F 100% 29.80 in 5.0 mi NW 9.2 mph - N/A Rain Light Rain
7:53 PM 39.2 °F 32.0 °F 39.2 °F 100% 29.80 in 9.0 mi NNW 11.5 mph 18.4 mph N/A   Light Drizzle
7:56 PM 39.2 °F 32.0 °F 39.2 °F 100% 29.80 in 10.0 mi NNW 11.5 mph 18.4 mph N/A   Overcast
7:58 PM 39.7 °F 32.7 °F 39.7 °F 100% 29.81 in 10.0 mi NNW 11.5 mph 18.4 mph 0.02 in   Overcast
8:03 PM 39.2 °F 33.0 °F 39.2 °F 100% 29.81 in 10.0 mi NNW 9.2 mph - N/A   Overcast
8:08 PM 39.2 °F 32.5 °F 39.2 °F 100% 29.81 in 10.0 mi NNW 10.4 mph - N/A   Overcast
8:13 PM 39.2 °F 33.6 °F 39.2 °F 100% 29.81 in 10.0 mi NNW 8.1 mph - N/A   Overcast
8:18 PM 39.2 °F 33.6 °F 39.2 °F 100% 29.81 in 10.0 mi NNW 8.1 mph - N/A   Overcast
8:19 PM 39.2 °F 33.0 °F 39.2 °F 100% 29.81 in 9.0 mi NW 9.2 mph - N/A   Overcast
8:24 PM 39.2 °F 32.0 °F 39.2 °F 100% 29.82 in 9.0 mi NW 11.5 mph - N/A   Light Drizzle
8:29 PM 39.2 °F 31.6 °F 39.2 °F 100% 29.82 in 9.0 mi NW 12.7 mph 19.6 mph N/A   Light Drizzle
8:31 PM 39.2 °F 32.0 °F 39.2 °F 100% 29.82 in 10.0 mi NW 11.5 mph 19.6 mph N/A   Overcast
8:36 PM 39.2 °F 31.6 °F 39.2 °F 100% 29.83 in 10.0 mi NW 12.7 mph - N/A   Overcast
8:41 PM 39.2 °F 32.5 °F 39.2 °F 100% 29.83 in 10.0 mi NW 10.4 mph 19.6 mph N/A   Overcast
8:46 PM 39.2 °F 31.6 °F 39.2 °F 100% 29.84 in 10.0 mi NW 12.7 mph 19.6 mph N/A   Overcast
8:56 PM 39.2 °F 33.0 °F 39.2 °F 100% 29.84 in 10.0 mi NW 9.2 mph 19.6 mph N/A   Overcast
8:58 PM 38.8 °F 32.1 °F 38.8 °F 100% 29.85 in 10.0 mi NW 10.4 mph 19.6 mph 0.00 in   Overcast
9:01 PM 39.2 °F 32.5 °F 39.2 °F 100% 29.85 in 10.0 mi NW 10.4 mph - N/A   Light Drizzle
9:22 PM 37.4 °F 28.9 °F 37.4 °F 100% 29.85 in 9.0 mi NW 13.8 mph 19.6 mph N/A   Overcast
9:29 PM 37.4 °F 29.3 °F 37.4 °F 100% 29.85 in 10.0 mi NW 12.7 mph 24.2 mph N/A   Light Drizzle
9:34 PM 37.4 °F 28.9 °F 37.4 °F 100% 29.85 in 9.0 mi NW 13.8 mph 24.2 mph N/A Rain Light Rain
9:39 PM 37.4 °F 28.9 °F 37.4 °F 100% 29.85 in 8.0 mi NW 13.8 mph 20.7 mph N/A Rain Light Rain
9:44 PM 37.4 °F 30.3 °F 37.4 °F 100% 29.86 in 9.0 mi WNW 10.4 mph 20.7 mph N/A Rain Light Rain
9:49 PM 37.4 °F 30.3 °F 37.4 °F 100% 29.86 in 10.0 mi NW 10.4 mph 20.7 mph N/A Rain Light Rain
10:58 PM 37.2 °F 27.6 °F 37.2 °F 100% 29.90 in 10.0 mi NW 17.3 mph 28.8 mph 0.00 in   Overcast
11:03 PM 37.4 °F 28.2 °F 37.4 °F 100% 29.89 in 10.0 mi NW 16.1 mph 25.3 mph N/A   Overcast
11:58 PM 37.6 °F 28.1 °F 37.6 °F 100% 29.91 in 10.0 mi WNW 17.3 mph 25.3 mph N/A   Overcast